Location: Anglesey
(53.1800°N, 4.2200°W)
Time: 01:43:06
(UTC+01:00)

OTV 5 (USA 277) - Pass Details

Date: 12 October 2017
Orbit: 404 x 417 km, 43.0° (Epoch: 07 September)

Event Time Altitude Azimuth Distance (km) Brightness Sun altitude
Rises 20:01:41 0° 219° (SW) 2,350 ? -14.9°
Reaches altitude 10° 20:05:00 10° 184° (S) 1,489 ? -15.4°
Maximum altitude 20:06:08 11° 164° (SSE) 1,411 ? -15.5°
Enters shadow 20:06:09 11° 164° (SSE) 1,411 ? -15.5°
